Home   Weather   Decatur   Past weeks

Flag for USA Past Weather in Decatur, Illinois, USA — Yesterday and Last 2 Weeks

Now
22 °F

Overcast.


Feels Like: 17 °F
Forecast: 19 / 29 °F
Wind: 3 mph from Northwest

Location: Decatur Airport

Current Time: Dec 9, 2016 at 9:23:17 pm

Latest Report: Dec 9, 2016 at 8:54 pm


Visibility: 10 mi

Pressure: 30.58 "Hg

Humidity: 68%

Dew Point: 13 °F

Location of DecaturLocation

Past Weather in Decatur — Graph

°F

Decatur Temperature Yesterday

Maximum temperature yesterday: 23 °F (at 12:54 am)
Minimum temperature yesterday: 19 °F (at 5:54 am)
Average temperature yesterday: 21 °F

High & Low Weather Summary for the Past Weeks

 TemperatureHumidityPressure
High58 °F (Nov 29, 2:54 pm)100% (Nov 28, 6:54 pm)30.64 "Hg (Nov 28, 6:54 pm)
Low19 °F (Dec 8, 5:54 am)54% (Dec 7, 10:54 am)29.23 "Hg (Nov 28, 6:54 pm)
Average37 °F77%30.08 "Hg
* Reported Nov 24 7:54 pm — Dec 9 7:54 pm, Decatur, Weather by CustomWeather, © 2016

Note: Actual official high and low records may vary slightly from our data, if they occured in-between our weather recording intervals... More about our weather records

Advertising

Decatur Weather History for the Previous 24 Hours

Scroll right to see more
 ConditionsComfort  
Time TempWeatherWind HumidityBarometerVisibility
7:54 pm
Fri, Dec 9
23 °FOvercast.5 mph68%30.59 "Hg10 mi
6:54 pm23 °FOvercast.6 mph65%30.59 "Hg10 mi
5:54 pm23 °FOvercast.5 mph65%30.60 "Hg10 mi
4:54 pm23 °FOvercast.5 mph65%30.60 "Hg10 mi
3:54 pm23 °FOvercast.5 mph65%30.60 "Hg10 mi
2:54 pm23 °FOvercast.10 mph68%30.60 "Hg10 mi
1:54 pm23 °FOvercast.6 mph65%30.59 "Hg10 mi
12:54 pm23 °FOvercast.9 mph68%30.60 "Hg10 mi
11:54 am24 °FOvercast.8 mph62%30.60 "Hg10 mi
10:54 am24 °FMore clouds than sun.8 mph68%30.63 "Hg10 mi
10:02 am22 °FLight snow. Mostly cloudy.9 mph82%30.61 "Hg3 mi
9:54 am22 °FLight snow. Mostly cloudy.10 mph82%30.64 "Hg2 mi
9:02 am22 °FLight snow. Overcast.7 mph78%30.59 "Hg3 mi
8:54 am22 °FLight snow. Overcast.6 mph78%30.62 "Hg2 mi
7:54 am22 °FLight snow. More clouds than sun.3 mph78%30.61 "Hg4 mi
6:54 am22 °FOvercast.9 mph68%30.60 "Hg10 mi
5:54 am22 °FOvercast.9 mph72%30.59 "Hg10 mi
4:54 am22 °FLight snow. Overcast.9 mph78%30.58 "Hg5 mi
3:54 am22 °FLight snow. Mostly cloudy.7 mph75%30.58 "Hg5 mi
2:54 am22 °FOvercast.8 mph75%30.58 "Hg8 mi
1:54 am22 °FOvercast.12 mph72%30.56 "Hg7 mi
12:54 am22 °FOvercast.10 mph68%30.55 "Hg10 mi
11:54 pm
Thu, Dec 8
21 °FOvercast.10 mph71%30.56 "Hg9 mi
10:54 pm21 °FOvercast.10 mph68%30.56 "Hg9 mi
9:54 pm21 °FOvercast.13 mph68%30.55 "Hg10 mi
Weather by CustomWeather, © 2016

See weather overviewHow to use our weather pages